Year,Month,Day,Hour,Minute,Value (Times are PST for temperature in C)
2007,04,10,00,00,5.10
2007,04,10,00,01,5.10
2007,04,10,00,02,5.10
2007,04,10,00,03,5.10
2007,04,10,00,04,5.00
2007,04,10,00,05,5.00
2007,04,10,00,06,5.00
2007,04,10,00,07,5.00
2007,04,10,00,08,5.00
2007,04,10,00,09,5.00
2007,04,10,00,10,5.00
2007,04,10,00,11,5.00
2007,04,10,00,12,5.00
2007,04,10,00,13,5.00
2007,04,10,00,14,5.00
2007,04,10,00,15,5.00
2007,04,10,00,16,5.00
2007,04,10,00,17,5.00
2007,04,10,00,18,5.00
2007,04,10,00,19,4.90
2007,04,10,00,20,4.90
2007,04,10,00,21,4.90
2007,04,10,00,22,4.90
2007,04,10,00,23,4.90
2007,04,10,00,24,4.90
2007,04,10,00,25,4.90
2007,04,10,00,26,4.90
2007,04,10,00,27,4.90
2007,04,10,00,28,4.90
2007,04,10,00,29,4.90
2007,04,10,00,30,5.00
2007,04,10,00,31,5.00
2007,04,10,00,32,5.00
2007,04,10,00,33,5.10
2007,04,10,00,34,5.10
2007,04,10,00,35,5.10
2007,04,10,00,36,5.10
2007,04,10,00,37,5.10
2007,04,10,00,38,5.10
2007,04,10,00,39,5.10
2007,04,10,00,40,5.10
2007,04,10,00,41,5.10
2007,04,10,00,42,5.10
2007,04,10,00,43,5.20
2007,04,10,00,44,5.20
2007,04,10,00,45,5.20
2007,04,10,00,46,5.20
2007,04,10,00,47,5.20
2007,04,10,00,48,5.20
2007,04,10,00,49,5.20
2007,04,10,00,50,5.20
2007,04,10,00,51,5.30
2007,04,10,00,52,5.30
2007,04,10,00,53,5.20
2007,04,10,00,54,5.20
2007,04,10,00,55,5.20
2007,04,10,00,56,5.20
2007,04,10,00,57,5.20
2007,04,10,00,58,5.20
2007,04,10,00,59,5.20
2007,04,10,01,00,5.20
2007,04,10,01,01,5.20
2007,04,10,01,02,5.20
2007,04,10,01,03,5.20
2007,04,10,01,04,5.20
2007,04,10,01,05,5.20
2007,04,10,01,06,5.20
2007,04,10,01,07,5.20
2007,04,10,01,08,5.20
2007,04,10,01,09,5.20
2007,04,10,01,10,5.20
2007,04,10,01,11,5.20
2007,04,10,01,12,5.20
2007,04,10,01,13,5.20
2007,04,10,01,14,5.30
2007,04,10,01,15,5.30
2007,04,10,01,16,5.20
2007,04,10,01,17,5.30
2007,04,10,01,18,5.30
2007,04,10,01,19,5.30
2007,04,10,01,20,5.30
2007,04,10,01,21,5.30
2007,04,10,01,22,5.30
2007,04,10,01,23,5.30
2007,04,10,01,24,5.40
2007,04,10,01,25,5.40
2007,04,10,01,26,5.40
2007,04,10,01,27,5.40
2007,04,10,01,28,5.40
2007,04,10,01,29,5.40
2007,04,10,01,30,5.40
2007,04,10,01,31,5.40
2007,04,10,01,32,5.30
2007,04,10,01,33,5.30
2007,04,10,01,34,5.30
2007,04,10,01,35,5.30
2007,04,10,01,36,5.30
2007,04,10,01,37,5.20
2007,04,10,01,38,5.20
2007,04,10,01,39,5.10
2007,04,10,01,40,5.10
2007,04,10,01,41,5.10
2007,04,10,01,42,5.10
2007,04,10,01,43,5.10
2007,04,10,01,44,5.00
2007,04,10,01,45,5.00
2007,04,10,01,46,4.90
2007,04,10,01,47,4.90
2007,04,10,01,48,4.90
2007,04,10,01,49,4.90
2007,04,10,01,50,4.80
2007,04,10,01,51,4.80
2007,04,10,01,52,4.80
2007,04,10,01,53,4.90
2007,04,10,01,54,4.90
2007,04,10,01,55,4.90
2007,04,10,01,56,4.90
2007,04,10,01,57,4.90
2007,04,10,01,58,4.90
2007,04,10,01,59,4.90
2007,04,10,02,00,4.90
2007,04,10,02,01,4.90
2007,04,10,02,02,4.90
2007,04,10,02,03,4.90
2007,04,10,02,04,4.90
2007,04,10,02,05,5.00
2007,04,10,02,06,5.00
2007,04,10,02,07,5.10
2007,04,10,02,08,5.10
2007,04,10,02,09,5.10
2007,04,10,02,10,5.10
2007,04,10,02,11,5.10
2007,04,10,02,12,5.10
2007,04,10,02,13,5.10
2007,04,10,02,14,5.00
2007,04,10,02,15,5.00
2007,04,10,02,16,5.00
2007,04,10,02,17,5.00
2007,04,10,02,18,5.00
2007,04,10,02,19,5.00
2007,04,10,02,20,5.00
2007,04,10,02,21,5.00
2007,04,10,02,22,5.00
2007,04,10,02,23,5.10
2007,04,10,02,24,5.20
2007,04,10,02,25,5.20
2007,04,10,02,26,5.30
2007,04,10,02,27,5.30
2007,04,10,02,28,5.30
2007,04,10,02,29,5.30
2007,04,10,02,30,5.20
2007,04,10,02,31,5.20
2007,04,10,02,32,5.20
2007,04,10,02,33,5.10
2007,04,10,02,34,5.00
2007,04,10,02,35,4.90
2007,04,10,02,36,4.80
2007,04,10,02,37,4.80
2007,04,10,02,38,4.80
2007,04,10,02,39,4.80
2007,04,10,02,40,4.90
2007,04,10,02,41,4.90
2007,04,10,02,42,4.90
2007,04,10,02,43,4.90
2007,04,10,02,44,4.90
2007,04,10,02,45,4.90
2007,04,10,02,46,4.90
2007,04,10,02,47,4.90
2007,04,10,02,48,4.90
2007,04,10,02,49,4.90
2007,04,10,02,50,4.90
2007,04,10,02,51,4.90
2007,04,10,02,52,4.90
2007,04,10,02,53,4.90
2007,04,10,02,54,4.90
2007,04,10,02,55,4.90
2007,04,10,02,56,4.90
2007,04,10,02,57,4.90
2007,04,10,02,58,4.90
2007,04,10,02,59,4.90
2007,04,10,03,00,4.90
2007,04,10,03,01,4.90
2007,04,10,03,02,4.90
2007,04,10,03,03,4.90
2007,04,10,03,04,4.90
2007,04,10,03,05,4.90
2007,04,10,03,06,4.80
2007,04,10,03,07,4.80
2007,04,10,03,08,4.80
2007,04,10,03,09,4.80
2007,04,10,03,10,4.70
2007,04,10,03,11,4.70
2007,04,10,03,12,4.70
2007,04,10,03,13,4.70
2007,04,10,03,14,4.80
2007,04,10,03,15,4.80
2007,04,10,03,16,4.80
2007,04,10,03,17,4.80
2007,04,10,03,18,4.70
2007,04,10,03,19,4.70
2007,04,10,03,20,4.70
2007,04,10,03,21,4.70
2007,04,10,03,22,4.70
2007,04,10,03,23,4.70
2007,04,10,03,24,4.70
2007,04,10,03,25,4.70
2007,04,10,03,26,4.70
2007,04,10,03,27,4.70
2007,04,10,03,28,4.60
2007,04,10,03,29,4.60
2007,04,10,03,30,4.60
2007,04,10,03,31,4.60
2007,04,10,03,32,4.60
2007,04,10,03,33,4.60
2007,04,10,03,34,4.60
2007,04,10,03,35,4.60
2007,04,10,03,36,4.60
2007,04,10,03,37,4.60
2007,04,10,03,38,4.70
2007,04,10,03,39,4.70
2007,04,10,03,40,4.70
2007,04,10,03,41,4.60
2007,04,10,03,42,4.60
2007,04,10,03,43,4.60
2007,04,10,03,44,4.60
2007,04,10,03,45,4.60
2007,04,10,03,46,4.60
2007,04,10,03,47,4.60
2007,04,10,03,48,4.60
2007,04,10,03,49,4.60
2007,04,10,03,50,4.60
2007,04,10,03,51,4.60
2007,04,10,03,52,4.60
2007,04,10,03,53,4.60
2007,04,10,03,54,4.60
2007,04,10,03,55,4.60
2007,04,10,03,56,4.60
2007,04,10,03,57,4.50
2007,04,10,03,58,4.50
2007,04,10,03,59,4.40
2007,04,10,04,00,4.30
2007,04,10,04,01,4.30
2007,04,10,04,02,4.30
2007,04,10,04,03,4.20
2007,04,10,04,04,4.20
2007,04,10,04,05,4.20
2007,04,10,04,06,4.20
2007,04,10,04,07,4.10
2007,04,10,04,08,4.10
2007,04,10,04,09,4.00
2007,04,10,04,10,4.00
2007,04,10,04,11,4.00
2007,04,10,04,12,4.00
2007,04,10,04,13,4.10
2007,04,10,04,14,4.10
2007,04,10,04,15,4.20
2007,04,10,04,16,4.20
2007,04,10,04,17,4.30
2007,04,10,04,18,4.30
2007,04,10,04,19,4.30
2007,04,10,04,20,4.30
2007,04,10,04,21,4.40
2007,04,10,04,22,4.40
2007,04,10,04,23,4.40
2007,04,10,04,24,4.30
2007,04,10,04,25,4.30
2007,04,10,04,26,4.30
2007,04,10,04,27,4.30
2007,04,10,04,28,4.30
2007,04,10,04,29,4.30
2007,04,10,04,30,4.30
2007,04,10,04,31,4.30
2007,04,10,04,32,4.30
2007,04,10,04,33,4.30
2007,04,10,04,34,4.40
2007,04,10,04,35,4.40
2007,04,10,04,36,4.40
2007,04,10,04,37,4.40
2007,04,10,04,38,4.50
2007,04,10,04,39,4.60
2007,04,10,04,40,4.60
2007,04,10,04,41,4.50
2007,04,10,04,42,4.60
2007,04,10,04,43,4.60
2007,04,10,04,44,4.60
2007,04,10,04,45,4.60
2007,04,10,04,46,4.60
2007,04,10,04,47,4.60
2007,04,10,04,48,4.60
2007,04,10,04,49,4.60
2007,04,10,04,50,4.60
2007,04,10,04,51,4.60
2007,04,10,04,52,4.50
2007,04,10,04,53,4.50
2007,04,10,04,54,4.50
2007,04,10,04,55,4.50
2007,04,10,04,56,4.60
2007,04,10,04,57,4.70
2007,04,10,04,58,4.80
2007,04,10,04,59,4.80
2007,04,10,05,00,4.80
2007,04,10,05,01,4.80
2007,04,10,05,02,4.80
2007,04,10,05,03,4.80
2007,04,10,05,04,4.80
2007,04,10,05,05,4.80
2007,04,10,05,06,4.70
2007,04,10,05,07,4.70
2007,04,10,05,08,4.70
2007,04,10,05,09,4.70
2007,04,10,05,10,4.70
2007,04,10,05,11,4.60
2007,04,10,05,12,4.60
2007,04,10,05,13,4.40
2007,04,10,05,14,4.20
2007,04,10,05,15,4.00
2007,04,10,05,16,3.80
2007,04,10,05,17,3.60
2007,04,10,05,18,3.40
2007,04,10,05,19,3.30
2007,04,10,05,20,3.20
2007,04,10,05,21,3.10
2007,04,10,05,22,3.00
2007,04,10,05,23,3.00
2007,04,10,05,24,2.90
2007,04,10,05,25,2.90
2007,04,10,05,26,2.80
2007,04,10,05,27,2.80
2007,04,10,05,28,2.80
2007,04,10,05,29,2.80
2007,04,10,05,30,2.80
2007,04,10,05,31,2.80
2007,04,10,05,32,2.80
2007,04,10,05,33,2.80
2007,04,10,05,34,2.80
2007,04,10,05,35,2.80
2007,04,10,05,36,2.80
2007,04,10,05,37,2.90
2007,04,10,05,38,3.10
2007,04,10,05,39,3.20
2007,04,10,05,40,3.40
2007,04,10,05,41,3.60
2007,04,10,05,42,3.80
2007,04,10,05,43,3.90
2007,04,10,05,44,3.90
2007,04,10,05,45,3.90
2007,04,10,05,46,3.90
2007,04,10,05,47,3.90
2007,04,10,05,48,3.90
2007,04,10,05,49,3.70
2007,04,10,05,50,3.60
2007,04,10,05,51,3.50
2007,04,10,05,52,3.40
2007,04,10,05,53,3.30
2007,04,10,05,54,3.30
2007,04,10,05,55,3.30
2007,04,10,05,56,3.30
2007,04,10,05,57,3.20
2007,04,10,05,58,3.20
2007,04,10,05,59,3.20
2007,04,10,06,00,3.20
2007,04,10,06,01,3.20
2007,04,10,06,02,3.10
2007,04,10,06,03,3.10
2007,04,10,06,04,3.10
2007,04,10,06,05,3.00
2007,04,10,06,06,3.00
2007,04,10,06,07,2.90
2007,04,10,06,08,2.90
2007,04,10,06,09,2.80
2007,04,10,06,10,2.80
2007,04,10,06,11,2.80
2007,04,10,06,12,2.70
2007,04,10,06,13,2.70
2007,04,10,06,14,2.70
2007,04,10,06,15,2.70
2007,04,10,06,16,2.70
2007,04,10,06,17,2.70
2007,04,10,06,18,2.80
2007,04,10,06,19,2.80
2007,04,10,06,20,2.90
2007,04,10,06,21,3.00
2007,04,10,06,22,3.00
2007,04,10,06,23,3.00
2007,04,10,06,24,3.10
2007,04,10,06,25,3.10
2007,04,10,06,26,3.10
2007,04,10,06,27,3.00
2007,04,10,06,28,2.90
2007,04,10,06,29,2.80
2007,04,10,06,30,2.80
2007,04,10,06,31,2.80
2007,04,10,06,32,2.80
2007,04,10,06,33,2.80
2007,04,10,06,34,2.80
2007,04,10,06,35,2.80
2007,04,10,06,36,2.70
2007,04,10,06,37,2.70
2007,04,10,06,38,2.70
2007,04,10,06,39,2.60
2007,04,10,06,40,2.50
2007,04,10,06,41,2.40
2007,04,10,06,42,2.40
2007,04,10,06,43,2.40
2007,04,10,06,44,2.40
2007,04,10,06,45,2.40
2007,04,10,06,46,2.30
2007,04,10,06,47,2.30
2007,04,10,06,48,2.40
2007,04,10,06,49,2.40
2007,04,10,06,50,2.40
2007,04,10,06,51,2.40
2007,04,10,06,52,2.50
2007,04,10,06,53,2.50
2007,04,10,06,54,2.60
2007,04,10,06,55,2.70
2007,04,10,06,56,2.70
2007,04,10,06,57,2.70
2007,04,10,06,58,2.70
2007,04,10,06,59,2.80
2007,04,10,07,00,2.90
2007,04,10,07,01,2.90
2007,04,10,07,02,2.90
2007,04,10,07,03,2.90
2007,04,10,07,04,2.90
2007,04,10,07,05,2.90
2007,04,10,07,06,2.90
2007,04,10,07,07,3.00
2007,04,10,07,08,3.10
2007,04,10,07,09,3.30
2007,04,10,07,10,3.40
2007,04,10,07,11,3.50
2007,04,10,07,12,3.60
2007,04,10,07,13,3.60
2007,04,10,07,14,3.70
2007,04,10,07,15,3.70
2007,04,10,07,16,3.80
2007,04,10,07,17,3.90
2007,04,10,07,18,4.00
2007,04,10,07,19,4.10
2007,04,10,07,20,4.10
2007,04,10,07,21,4.20
2007,04,10,07,22,4.20
2007,04,10,07,23,4.30
2007,04,10,07,24,4.30
2007,04,10,07,25,4.40
2007,04,10,07,26,4.40
2007,04,10,07,27,4.50
2007,04,10,07,28,4.60
2007,04,10,07,29,4.60
2007,04,10,07,30,4.70
2007,04,10,07,31,4.80
2007,04,10,07,32,4.80
2007,04,10,07,33,4.90
2007,04,10,07,34,4.90
2007,04,10,07,35,5.00
2007,04,10,07,36,5.10
2007,04,10,07,37,5.10
2007,04,10,07,38,5.20
2007,04,10,07,39,5.30
2007,04,10,07,40,5.40
2007,04,10,07,41,5.40
2007,04,10,07,42,5.50
2007,04,10,07,43,5.60
2007,04,10,07,44,5.60
2007,04,10,07,45,5.60
2007,04,10,07,46,5.70
2007,04,10,07,47,5.70
2007,04,10,07,48,5.80
2007,04,10,07,49,5.80
2007,04,10,07,50,5.90
2007,04,10,07,51,5.90
2007,04,10,07,52,5.90
2007,04,10,07,53,6.00
2007,04,10,07,54,6.00
2007,04,10,07,55,6.00
2007,04,10,07,56,6.10
2007,04,10,07,57,6.10
2007,04,10,07,58,6.20
2007,04,10,07,59,6.20
2007,04,10,08,00,6.20
2007,04,10,08,01,6.20
2007,04,10,08,02,6.20
2007,04,10,08,03,6.30
2007,04,10,08,04,6.30
2007,04,10,08,05,6.30
2007,04,10,08,06,6.30
2007,04,10,08,07,6.30
2007,04,10,08,08,6.40
2007,04,10,08,09,6.40
2007,04,10,08,10,6.40
2007,04,10,08,11,6.40
2007,04,10,08,12,6.40
2007,04,10,08,13,6.40
2007,04,10,08,14,6.40
2007,04,10,08,15,6.40
2007,04,10,08,16,6.40
2007,04,10,08,17,6.50
2007,04,10,08,18,6.50
2007,04,10,08,19,6.50
2007,04,10,08,20,6.60
2007,04,10,08,21,6.60
2007,04,10,08,22,6.70
2007,04,10,08,23,6.70
2007,04,10,08,24,6.80
2007,04,10,08,25,6.80
2007,04,10,08,26,6.90
2007,04,10,08,27,6.90
2007,04,10,08,28,6.90
2007,04,10,08,29,7.00
2007,04,10,08,30,7.00
2007,04,10,08,31,7.10
2007,04,10,08,32,7.20
2007,04,10,08,33,7.20
2007,04,10,08,34,7.20
2007,04,10,08,35,7.20
2007,04,10,08,36,7.20
2007,04,10,08,37,7.20
2007,04,10,08,38,7.20
2007,04,10,08,39,7.20
2007,04,10,08,40,7.20
2007,04,10,08,41,7.20
2007,04,10,08,42,7.20
2007,04,10,08,43,7.20
2007,04,10,08,44,7.20
2007,04,10,08,45,7.20
2007,04,10,08,46,7.20
2007,04,10,08,47,7.20
2007,04,10,08,48,7.30
2007,04,10,08,49,7.30
2007,04,10,08,50,7.30
2007,04,10,08,51,7.30
2007,04,10,08,52,7.30
2007,04,10,08,53,7.30
2007,04,10,08,54,7.30
2007,04,10,08,55,7.30
2007,04,10,08,56,7.30
2007,04,10,08,57,7.30
2007,04,10,08,58,7.40
2007,04,10,08,59,7.50
2007,04,10,09,00,7.50
2007,04,10,09,01,7.50
2007,04,10,09,02,7.50
2007,04,10,09,03,7.50
2007,04,10,09,04,7.50
2007,04,10,09,05,7.40
2007,04,10,09,06,7.40
2007,04,10,09,07,7.40
2007,04,10,09,08,7.40
2007,04,10,09,09,7.40
2007,04,10,09,10,7.30
2007,04,10,09,11,7.30
2007,04,10,09,12,7.30
2007,04,10,09,13,7.30
2007,04,10,09,14,7.30
2007,04,10,09,15,7.30
2007,04,10,09,16,7.30
2007,04,10,09,17,7.30
2007,04,10,09,18,7.30
2007,04,10,09,19,7.30
2007,04,10,09,20,7.30
2007,04,10,09,21,7.20
2007,04,10,09,22,7.20
2007,04,10,09,23,7.20
2007,04,10,09,24,7.20
2007,04,10,09,25,7.20
2007,04,10,09,26,7.20
2007,04,10,09,27,7.30
2007,04,10,09,28,7.30
2007,04,10,09,29,7.30
2007,04,10,09,30,7.30
2007,04,10,09,31,7.30
2007,04,10,09,32,7.20
2007,04,10,09,33,7.20
2007,04,10,09,34,7.20
2007,04,10,09,35,7.20
2007,04,10,09,36,7.10
2007,04,10,09,37,7.10
2007,04,10,09,38,7.10
2007,04,10,09,39,7.10
2007,04,10,09,40,7.10
2007,04,10,09,41,7.10
2007,04,10,09,42,7.00
2007,04,10,09,43,7.10
2007,04,10,09,44,7.10
2007,04,10,09,45,7.10
2007,04,10,09,46,7.10
2007,04,10,09,47,7.10
2007,04,10,09,48,7.10
2007,04,10,09,49,7.10
2007,04,10,09,50,7.10
2007,04,10,09,51,7.10
2007,04,10,09,52,7.10
2007,04,10,09,53,7.10
2007,04,10,09,54,7.20
2007,04,10,09,55,7.20
2007,04,10,09,56,7.20
2007,04,10,09,57,7.20
2007,04,10,09,58,7.20
2007,04,10,09,59,7.30
2007,04,10,10,00,7.30
2007,04,10,10,01,7.30
2007,04,10,10,02,7.30
2007,04,10,10,03,7.30
2007,04,10,10,04,7.30
2007,04,10,10,05,7.30
2007,04,10,10,06,7.30
2007,04,10,10,07,7.30
2007,04,10,10,08,7.30
2007,04,10,10,09,7.30
2007,04,10,10,10,7.40
2007,04,10,10,11,7.40
2007,04,10,10,12,7.40
2007,04,10,10,13,7.50
2007,04,10,10,14,7.50
2007,04,10,10,15,7.60
2007,04,10,10,16,7.60
2007,04,10,10,17,7.60
2007,04,10,10,18,7.60
2007,04,10,10,19,7.60
2007,04,10,10,20,7.60
2007,04,10,10,21,7.60
2007,04,10,10,22,7.60
2007,04,10,10,23,7.70
2007,04,10,10,24,7.70
2007,04,10,10,25,7.70
2007,04,10,10,26,7.70
2007,04,10,10,27,7.70
2007,04,10,10,28,7.70
2007,04,10,10,29,7.70
2007,04,10,10,30,7.70
2007,04,10,10,31,7.70
2007,04,10,10,32,7.80
2007,04,10,10,33,7.80
2007,04,10,10,34,7.80
2007,04,10,10,35,7.80
2007,04,10,10,36,7.80
2007,04,10,10,37,7.80
2007,04,10,10,38,7.80
2007,04,10,10,39,7.80
2007,04,10,10,40,7.90
2007,04,10,10,41,7.90
2007,04,10,10,42,8.00
2007,04,10,10,43,8.10
2007,04,10,10,44,8.10
2007,04,10,10,45,8.20
2007,04,10,10,46,8.20
2007,04,10,10,47,8.20
2007,04,10,10,48,8.20
2007,04,10,10,49,8.20
2007,04,10,10,50,8.20
2007,04,10,10,51,8.20
2007,04,10,10,52,8.20
2007,04,10,10,53,8.20
2007,04,10,10,54,8.10
2007,04,10,10,55,8.00
2007,04,10,10,56,8.00
2007,04,10,10,57,8.00
2007,04,10,10,58,8.00
2007,04,10,10,59,8.00
2007,04,10,11,00,8.00
2007,04,10,11,01,8.00
2007,04,10,11,02,8.00
2007,04,10,11,03,8.10
2007,04,10,11,04,8.10
2007,04,10,11,05,8.20
2007,04,10,11,06,8.20
2007,04,10,11,07,8.20
2007,04,10,11,08,8.20
2007,04,10,11,09,8.20
2007,04,10,11,10,8.20
2007,04,10,11,11,8.20
2007,04,10,11,12,8.20
2007,04,10,11,13,8.20
2007,04,10,11,14,8.20
2007,04,10,11,15,8.30
2007,04,10,11,16,8.30
2007,04,10,11,17,8.40
2007,04,10,11,18,8.40
2007,04,10,11,19,8.50
2007,04,10,11,20,8.50
2007,04,10,11,21,8.60
2007,04,10,11,22,8.70
2007,04,10,11,23,8.70
2007,04,10,11,24,8.70
2007,04,10,11,25,8.70
2007,04,10,11,26,8.60
2007,04,10,11,27,8.60
2007,04,10,11,28,8.50
2007,04,10,11,29,8.50
2007,04,10,11,30,8.60
2007,04,10,11,31,8.50
2007,04,10,11,32,8.60
2007,04,10,11,33,8.60
2007,04,10,11,34,8.60
2007,04,10,11,35,8.60
2007,04,10,11,36,8.60
2007,04,10,11,37,8.50
2007,04,10,11,38,8.50
2007,04,10,11,39,8.40
2007,04,10,11,40,8.40
2007,04,10,11,41,8.40
2007,04,10,11,42,8.40
2007,04,10,11,43,8.50
2007,04,10,11,44,8.50
2007,04,10,11,45,8.60
2007,04,10,11,46,8.60
2007,04,10,11,47,8.70
2007,04,10,11,48,8.70
2007,04,10,11,49,8.70
2007,04,10,11,50,8.80
2007,04,10,11,51,8.80
2007,04,10,11,52,8.80
2007,04,10,11,53,8.80
2007,04,10,11,54,8.80
2007,04,10,11,55,8.80
2007,04,10,11,56,8.80
2007,04,10,11,57,8.80
2007,04,10,11,58,8.80
2007,04,10,11,59,8.70
2007,04,10,12,00,8.70
2007,04,10,12,01,8.70
2007,04,10,12,02,8.80
2007,04,10,12,03,8.80
2007,04,10,12,04,8.90
2007,04,10,12,05,8.90
2007,04,10,12,06,8.90
2007,04,10,12,07,9.00
2007,04,10,12,08,9.10
2007,04,10,12,09,9.20
2007,04,10,12,10,9.30
2007,04,10,12,11,9.30
2007,04,10,12,12,9.40
2007,04,10,12,13,9.40
2007,04,10,12,14,9.40
2007,04,10,12,15,9.40
2007,04,10,12,16,9.40
2007,04,10,12,17,9.40
2007,04,10,12,18,9.40
2007,04,10,12,19,9.30
2007,04,10,12,20,9.30
2007,04,10,12,21,9.30
2007,04,10,12,22,9.30
2007,04,10,12,23,9.30
2007,04,10,12,24,9.40
2007,04,10,12,25,9.40
2007,04,10,12,26,9.40
2007,04,10,12,27,9.50
2007,04,10,12,28,9.50
2007,04,10,12,29,9.40
2007,04,10,12,30,9.30
2007,04,10,12,31,9.20
2007,04,10,12,32,9.10
2007,04,10,12,33,9.10
2007,04,10,12,34,9.10
2007,04,10,12,35,9.10
2007,04,10,12,36,9.10
2007,04,10,12,37,9.10
2007,04,10,12,38,9.20
2007,04,10,12,39,9.20
2007,04,10,12,40,9.30
2007,04,10,12,41,9.30
2007,04,10,12,42,9.40
2007,04,10,12,43,9.50
2007,04,10,12,44,9.60
2007,04,10,12,45,9.80
2007,04,10,12,46,9.90
2007,04,10,12,47,10.00
2007,04,10,12,48,10.10
2007,04,10,12,49,10.10
2007,04,10,12,50,10.10
2007,04,10,12,51,10.20
2007,04,10,12,52,10.20
2007,04,10,12,53,10.30
2007,04,10,12,54,10.40
2007,04,10,12,55,10.40
2007,04,10,12,56,10.40
2007,04,10,12,57,10.30
2007,04,10,12,58,10.30
2007,04,10,12,59,10.20
2007,04,10,13,00,10.10
2007,04,10,13,01,10.00
2007,04,10,13,02,9.90
2007,04,10,13,03,10.00
2007,04,10,13,04,10.10
2007,04,10,13,05,10.20
2007,04,10,13,06,10.30
2007,04,10,13,07,10.50
2007,04,10,13,08,10.50
2007,04,10,13,09,10.60
2007,04,10,13,10,10.70
2007,04,10,13,11,10.80
2007,04,10,13,12,10.80
2007,04,10,13,13,10.70
2007,04,10,13,14,10.60
2007,04,10,13,15,10.50
2007,04,10,13,16,10.40
2007,04,10,13,17,10.30
2007,04,10,13,18,10.20
2007,04,10,13,19,10.20
2007,04,10,13,20,10.20
2007,04,10,13,21,10.20
2007,04,10,13,22,10.10
2007,04,10,13,23,10.00
2007,04,10,13,24,9.90
2007,04,10,13,25,9.90
2007,04,10,13,26,9.80
2007,04,10,13,27,9.70
2007,04,10,13,28,9.70
2007,04,10,13,29,9.70
2007,04,10,13,30,9.70
2007,04,10,13,31,9.60
2007,04,10,13,32,9.50
2007,04,10,13,33,9.40
2007,04,10,13,34,9.20
2007,04,10,13,35,9.10
2007,04,10,13,36,9.10
2007,04,10,13,37,9.10
2007,04,10,13,38,9.10
2007,04,10,13,39,9.10
2007,04,10,13,40,9.10
2007,04,10,13,41,9.20
2007,04,10,13,42,9.20
2007,04,10,13,43,9.20
2007,04,10,13,44,9.30
2007,04,10,13,45,9.30
2007,04,10,13,46,9.30
2007,04,10,13,47,9.30
2007,04,10,13,48,9.40
2007,04,10,13,49,9.40
2007,04,10,13,50,9.50
2007,04,10,13,51,9.70
2007,04,10,13,52,9.80
2007,04,10,13,53,9.90
2007,04,10,13,54,9.90
2007,04,10,13,55,9.90
2007,04,10,13,56,9.90
2007,04,10,13,57,9.90
2007,04,10,13,58,10.10
2007,04,10,13,59,10.20
2007,04,10,14,00,10.40
2007,04,10,14,01,10.50
2007,04,10,14,02,10.60
2007,04,10,14,03,10.60
2007,04,10,14,04,10.70
2007,04,10,14,05,10.90
2007,04,10,14,06,10.90
2007,04,10,14,07,10.90
2007,04,10,14,08,11.00
2007,04,10,14,09,11.00
2007,04,10,14,10,10.90
2007,04,10,14,11,10.90
2007,04,10,14,12,11.00
2007,04,10,14,13,11.10
2007,04,10,14,14,11.20
2007,04,10,14,15,11.10
2007,04,10,14,16,10.90
2007,04,10,14,17,10.80
2007,04,10,14,18,10.90
2007,04,10,14,19,11.10
2007,04,10,14,20,11.20
2007,04,10,14,21,11.20
2007,04,10,14,22,11.20
2007,04,10,14,23,11.10
2007,04,10,14,24,11.20
2007,04,10,14,25,11.10
2007,04,10,14,26,10.90
2007,04,10,14,27,10.80
2007,04,10,14,28,10.80
2007,04,10,14,29,10.80
2007,04,10,14,30,10.80
2007,04,10,14,31,10.80
2007,04,10,14,32,10.80
2007,04,10,14,33,10.90
2007,04,10,14,34,10.80
2007,04,10,14,35,10.80
2007,04,10,14,36,10.80
2007,04,10,14,37,10.90
2007,04,10,14,38,11.10
2007,04,10,14,39,11.30
2007,04,10,14,40,11.20
2007,04,10,14,41,11.20
2007,04,10,14,42,11.10
2007,04,10,14,43,11.00
2007,04,10,14,44,10.90
2007,04,10,14,45,10.90
2007,04,10,14,46,10.80
2007,04,10,14,47,10.80
2007,04,10,14,48,10.80
2007,04,10,14,49,10.80
2007,04,10,14,50,10.70
2007,04,10,14,51,10.70
2007,04,10,14,52,10.70
2007,04,10,14,53,10.70
2007,04,10,14,54,10.60
2007,04,10,14,55,10.40
2007,04,10,14,56,10.20
2007,04,10,14,57,10.20
2007,04,10,14,58,10.30
2007,04,10,14,59,10.30
2007,04,10,15,00,10.40
2007,04,10,15,01,10.40
2007,04,10,15,02,10.40
2007,04,10,15,03,10.40
2007,04,10,15,04,10.40
2007,04,10,15,05,10.50
2007,04,10,15,06,10.40
2007,04,10,15,07,10.40
2007,04,10,15,08,10.30
2007,04,10,15,09,10.30
2007,04,10,15,10,10.30
2007,04,10,15,11,10.20
2007,04,10,15,12,10.10
2007,04,10,15,13,10.10
2007,04,10,15,14,10.20
2007,04,10,15,15,10.20
2007,04,10,15,16,10.20
2007,04,10,15,17,10.10
2007,04,10,15,18,10.20
2007,04,10,15,19,10.20
2007,04,10,15,20,10.20
2007,04,10,15,21,10.20
2007,04,10,15,22,10.10
2007,04,10,15,23,10.00
2007,04,10,15,24,10.00
2007,04,10,15,25,9.90
2007,04,10,15,26,9.80
2007,04,10,15,27,9.80
2007,04,10,15,28,9.70
2007,04,10,15,29,9.70
2007,04,10,15,30,9.80
2007,04,10,15,31,9.80
2007,04,10,15,32,10.00
2007,04,10,15,33,10.10
2007,04,10,15,34,10.20
2007,04,10,15,35,10.30
2007,04,10,15,36,10.40
2007,04,10,15,37,10.50
2007,04,10,15,38,10.50
2007,04,10,15,39,10.70
2007,04,10,15,40,10.70
2007,04,10,15,41,10.80
2007,04,10,15,42,10.90
2007,04,10,15,43,11.00
2007,04,10,15,44,11.00
2007,04,10,15,45,10.90
2007,04,10,15,46,10.80
2007,04,10,15,47,10.80
2007,04,10,15,48,10.80
2007,04,10,15,49,10.80
2007,04,10,15,50,10.70
2007,04,10,15,51,10.60
2007,04,10,15,52,10.50
2007,04,10,15,53,10.50
2007,04,10,15,54,10.40
2007,04,10,15,55,10.50
2007,04,10,15,56,10.50
2007,04,10,15,57,10.60
2007,04,10,15,58,10.70
2007,04,10,15,59,10.70
2007,04,10,16,00,10.70
2007,04,10,16,01,10.70
2007,04,10,16,02,10.60
2007,04,10,16,03,10.50
2007,04,10,16,04,10.50
2007,04,10,16,05,10.60
2007,04,10,16,06,10.60
2007,04,10,16,07,10.60
2007,04,10,16,08,10.50
2007,04,10,16,09,10.40
2007,04,10,16,10,10.40
2007,04,10,16,11,10.40
2007,04,10,16,12,10.40
2007,04,10,16,13,10.40
2007,04,10,16,14,10.50
2007,04,10,16,15,10.50
2007,04,10,16,16,10.50
2007,04,10,16,17,10.40
2007,04,10,16,18,10.40
2007,04,10,16,19,10.30
2007,04,10,16,20,10.30
2007,04,10,16,21,10.30
2007,04,10,16,22,10.30
2007,04,10,16,23,10.30
2007,04,10,16,24,10.40
2007,04,10,16,25,10.40
2007,04,10,16,26,10.60
2007,04,10,16,27,10.70
2007,04,10,16,28,10.70
2007,04,10,16,29,10.80
2007,04,10,16,30,10.70
2007,04,10,16,31,10.60
2007,04,10,16,32,10.50
2007,04,10,16,33,10.50
2007,04,10,16,34,10.60
2007,04,10,16,35,10.60
2007,04,10,16,36,10.70
2007,04,10,16,37,10.80
2007,04,10,16,38,10.90
2007,04,10,16,39,10.90
2007,04,10,16,40,10.90
2007,04,10,16,41,10.90
2007,04,10,16,42,10.90
2007,04,10,16,43,10.80
2007,04,10,16,44,10.80
2007,04,10,16,45,10.80
2007,04,10,16,46,10.80
2007,04,10,16,47,10.90
2007,04,10,16,48,10.90
2007,04,10,16,49,11.00
2007,04,10,16,50,11.10
2007,04,10,16,51,11.10
2007,04,10,16,52,11.00
2007,04,10,16,53,11.10
2007,04,10,16,54,11.10
2007,04,10,16,55,11.20
2007,04,10,16,56,11.20
2007,04,10,16,57,11.20
2007,04,10,16,58,11.20
2007,04,10,16,59,11.20
2007,04,10,17,00,11.10
2007,04,10,17,01,10.90
2007,04,10,17,02,10.70
2007,04,10,17,03,10.60
2007,04,10,17,04,10.50
2007,04,10,17,05,10.40
2007,04,10,17,06,10.40
2007,04,10,17,07,10.40
2007,04,10,17,08,10.40
2007,04,10,17,09,10.40
2007,04,10,17,10,10.50
2007,04,10,17,11,10.50
2007,04,10,17,12,10.60
2007,04,10,17,13,10.60
2007,04,10,17,14,10.70
2007,04,10,17,15,10.70
2007,04,10,17,16,10.60
2007,04,10,17,17,10.60
2007,04,10,17,18,10.70
2007,04,10,17,19,10.70
2007,04,10,17,20,10.80
2007,04,10,17,21,10.80
2007,04,10,17,22,10.80
2007,04,10,17,23,10.80
2007,04,10,17,24,10.80
2007,04,10,17,25,10.70
2007,04,10,17,26,10.70
2007,04,10,17,27,10.60
2007,04,10,17,28,10.60
2007,04,10,17,29,10.60
2007,04,10,17,30,10.60
2007,04,10,17,31,10.50
2007,04,10,17,32,10.50
2007,04,10,17,33,10.40
2007,04,10,17,34,10.30
2007,04,10,17,35,10.20
2007,04,10,17,36,10.10
2007,04,10,17,37,10.10
2007,04,10,17,38,10.10
2007,04,10,17,39,10.10
2007,04,10,17,40,10.10
2007,04,10,17,41,10.10
2007,04,10,17,42,10.00
2007,04,10,17,43,10.00
2007,04,10,17,44,10.00
2007,04,10,17,45,10.00
2007,04,10,17,46,9.90
2007,04,10,17,47,9.90
2007,04,10,17,48,9.80
2007,04,10,17,49,9.80
2007,04,10,17,50,9.70
2007,04,10,17,51,9.70
2007,04,10,17,52,9.70
2007,04,10,17,53,9.70
2007,04,10,17,54,9.70
2007,04,10,17,55,9.70